period_start,C,m1,H,J0,J1,J2,J3,J4,J5,JA,JB,JC,JD,JJ,JK,JN,#
2017-06-06 00:00:22,-0.00,0.07,0.00,22.96,27.30,30.21,13.99,45.98,1019.54,2031.62,3453.07,3087.97,3541.00,600.33,598.14,26.97,0000 0000 0000 0000 000000
2017-06-06 00:05:23,0.02,0.07,0.00,22.97,27.30,30.19,14.01,45.82,1019.53,2031.68,3453.08,3087.97,3541.01,600.32,598.13,27.02,0000 0000 0000 0000 000000
2017-06-06 00:10:25,0.00,0.07,0.00,22.96,27.30,30.20,14.00,46.02,1019.54,2031.77,3453.02,3087.98,3541.00,599.83,597.62,27.07,0000 0000 0000 0000 000000
2017-06-06 00:15:26,-0.01,0.07,0.00,22.95,27.30,30.20,13.98,45.71,1019.53,2031.70,3453.01,3087.96,3541.00,599.92,597.78,27.12,0000 0000 0000 0000 000000
2017-06-06 00:20:27,0.00,0.07,0.00,22.95,27.30,30.17,13.91,45.65,1019.50,2031.80,3453.02,3087.96,3541.01,599.81,597.63,27.17,0000 0000 0000 0000 000000
2017-06-06 00:25:29,0.00,0.07,0.00,22.96,27.30,30.15,14.03,45.98,1019.53,2031.89,3453.05,3087.96,3541.02,599.95,597.72,27.22,0000 0000 0000 0000 000000
2017-06-06 00:30:30,0.00,0.07,0.00,22.97,27.30,30.18,14.03,45.86,1019.50,2031.93,3453.01,3087.94,3541.00,600.01,597.90,27.27,0000 0000 0000 0000 000000
2017-06-06 00:35:32,-0.01,0.07,0.00,22.96,27.30,30.27,14.06,45.93,1019.41,2031.94,3453.00,3087.95,3541.00,600.34,598.05,27.32,0000 0000 0000 0000 000000
2017-06-06 00:40:33,0.00,0.07,0.00,22.95,27.30,30.21,13.97,45.77,1019.16,2031.95,3453.00,3087.95,3541.00,599.65,597.34,27.37,0000 0000 0000 0000 000000
2017-06-06 00:45:34,0.01,0.07,0.00,22.96,27.30,30.22,13.92,45.77,1019.18,2031.95,3453.00,3087.84,3541.00,600.14,597.77,27.42,0000 0000 0000 0000 000000
2017-06-06 00:50:35,0.00,0.07,0.00,22.94,27.30,30.14,13.95,45.87,1019.22,2031.94,3452.99,3087.66,3541.00,600.24,598.03,27.47,0000 0000 0000 0000 000000
2017-06-06 00:55:37,-0.00,0.07,0.00,22.93,27.30,30.15,13.97,45.88,1019.13,2031.96,3452.99,3087.71,3540.99,599.78,597.53,27.52,0000 0000 0000 0000 000000
2017-06-06 01:00:39,-0.00,0.07,0.00,22.94,27.29,30.13,14.02,45.82,1019.20,2031.98,3452.99,3087.83,3540.99,600.08,597.69,27.57,0000 0000 0000 0000 000000
2017-06-06 01:05:40,-0.00,0.07,0.00,22.94,27.29,30.17,13.98,45.75,1019.24,2031.97,3452.99,3087.86,3540.99,600.05,597.71,27.62,0000 0000 0000 0000 000000
2017-06-06 01:10:41,0.00,0.07,0.00,22.93,27.28,30.18,14.06,45.79,1019.11,2031.98,3452.99,3087.93,3540.99,600.20,597.76,27.67,0000 0000 0000 0000 000000
2017-06-06 01:15:42,-0.00,0.07,0.00,22.94,27.28,30.15,13.99,45.77,1019.08,2031.99,3452.99,3087.86,3540.99,599.83,597.37,27.72,0000 0000 0000 0000 000000
2017-06-06 01:20:43,0.00,0.07,0.00,22.94,27.28,30.13,13.93,45.83,1019.08,2031.98,3452.99,3087.92,3540.99,599.94,597.53,27.77,0000 0000 0000 0000 000000
2017-06-06 01:25:44,0.00,0.07,0.00,22.92,27.27,30.13,13.92,45.74,1019.08,2031.98,3452.99,3087.86,3540.99,599.86,597.56,27.82,0000 0000 0000 0000 000000
2017-06-06 01:30:46,-0.00,0.07,0.00,22.90,27.27,30.14,14.02,45.75,1019.06,2031.98,3452.99,3087.94,3540.99,599.93,597.52,27.87,0000 0000 0000 0000 000000
2017-06-06 01:35:47,-0.00,0.07,0.00,22.85,27.27,30.19,14.01,45.73,1019.06,2031.99,3452.99,3087.95,3541.00,599.89,597.59,27.92,0000 0000 0000 0000 000000
2017-06-06 01:40:49,0.00,0.07,0.00,22.79,27.26,30.21,14.05,45.95,1019.06,2031.99,3452.97,3087.94,3541.00,599.93,597.95,27.97,0000 0000 0000 0000 000000
2017-06-06 01:45:50,0.00,0.07,0.00,22.71,27.25,30.17,14.01,45.83,1019.06,2031.99,3452.98,3087.96,3541.00,600.02,598.02,28.02,0000 0000 0000 0000 000000
2017-06-06 01:50:51,0.00,0.07,0.00,22.64,27.23,30.14,14.02,46.01,1019.06,2031.99,3452.98,3087.98,3541.03,600.03,598.24,28.07,0000 0000 0000 0000 000000
2017-06-06 01:55:52,0.00,0.07,0.00,22.59,27.21,30.06,14.10,45.81,1019.06,2031.99,3452.98,3087.99,3541.05,600.20,598.47,28.12,0000 0000 0000 0000 000000
2017-06-06 02:00:53,0.00,0.07,0.00,22.52,27.18,29.98,14.07,45.83,1018.95,2031.99,3452.99,3087.99,3541.17,600.17,598.51,28.17,0000 0000 0000 0000 000000
2017-06-06 02:05:55,-0.00,0.07,0.00,22.49,27.16,29.89,13.93,45.82,1018.60,2031.99,3452.99,3088.00,3541.67,599.90,598.17,28.22,0000 0000 0000 0000 000000
2017-06-06 02:10:56,0.00,0.07,0.00,22.45,27.12,29.86,13.99,45.84,1018.58,2032.02,3453.00,3088.02,3541.94,600.30,598.61,28.27,0000 0000 0000 0000 000000
2017-06-06 02:15:57,0.01,0.07,0.00,22.43,27.09,29.80,13.91,45.78,1018.57,2032.18,3453.09,3088.35,3541.99,599.60,597.99,28.32,0000 0000 0000 0000 000000
2017-06-06 02:20:59,0.00,0.07,0.00,22.43,27.06,29.79,14.04,45.96,1018.57,2032.44,3453.31,3088.83,3542.00,599.91,598.22,28.37,0000 0000 0000 0000 000000
2017-06-06 02:26:00,0.02,0.07,0.00,22.42,27.04,29.81,14.03,45.86,1018.56,2032.90,3453.90,3088.98,3542.11,600.11,598.37,28.42,0000 0000 0000 0000 000000
2017-06-06 02:31:01,-0.01,0.07,0.00,22.43,27.01,29.81,13.97,45.96,1018.48,2032.97,3453.98,3088.99,3542.62,600.09,598.49,28.47,0000 0000 0000 0000 000000
2017-06-06 02:36:03,0.00,0.07,0.00,22.45,26.98,29.79,13.96,45.87,1018.49,2032.99,3453.99,3089.00,3542.94,599.91,598.19,28.53,0000 0000 0000 0000 000000
2017-06-06 02:41:04,0.00,0.07,0.00,22.48,26.96,29.80,14.06,45.94,1018.52,2032.99,3454.00,3089.04,3542.99,600.27,598.40,28.58,0000 0000 0000 0000 000000
2017-06-06 02:46:05,0.00,0.07,0.00,22.51,26.95,29.79,13.98,45.95,1018.54,2032.99,3454.01,3089.07,3542.99,599.81,597.93,28.63,0000 0000 0000 0000 000000
2017-06-06 02:51:06,0.00,0.07,0.00,22.53,26.93,29.80,13.98,45.79,1018.52,2033.00,3454.00,3089.18,3543.00,599.74,597.86,28.68,0000 0000 0000 0000 000000
2017-06-06 02:56:07,-0.01,0.07,0.00,22.56,26.92,29.78,14.10,46.05,1018.52,2033.01,3454.01,3089.34,3543.00,600.51,598.60,28.73,0000 0000 0000 0000 000000
2017-06-06 03:01:08,-0.00,0.07,0.00,22.60,26.92,29.81,14.08,46.01,1018.45,2033.05,3454.03,3089.80,3543.04,600.23,598.20,28.78,0000 0000 0000 0000 000000
2017-06-06 03:06:10,-0.01,0.07,0.00,22.64,26.92,29.78,13.99,45.84,1018.34,2033.03,3454.02,3089.83,3543.07,600.16,597.84,28.83,0000 0000 0000 0000 000000
2017-06-06 03:11:11,0.00,0.07,0.00,22.66,26.91,29.83,14.01,45.92,1018.16,2033.05,3454.04,3089.92,3543.10,600.11,597.73,28.88,0000 0000 0000 0000 000000
2017-06-06 03:16:12,0.00,0.07,0.00,22.69,26.92,29.78,14.05,45.95,1018.20,2033.06,3454.04,3089.86,3543.08,599.75,597.29,28.93,0000 0000 0000 0000 000000
2017-06-06 03:21:13,0.00,0.07,0.00,22.72,26.92,29.75,13.94,45.91,1018.10,2033.03,3454.03,3089.74,3543.05,599.93,597.41,28.98,0000 0000 0000 0000 000000
2017-06-06 03:26:15,0.00,0.07,0.00,22.76,26.92,29.76,14.05,46.08,1018.09,2033.04,3454.02,3089.69,3543.03,600.30,597.64,29.03,0000 0000 0000 0000 000000
2017-06-06 03:31:16,-0.00,0.07,0.00,22.80,26.92,29.77,14.00,45.86,1018.08,2033.05,3454.03,3089.76,3543.03,600.07,597.36,29.08,0000 0000 0000 0000 000000
2017-06-06 03:36:17,0.01,0.07,0.00,22.82,26.94,29.76,14.07,45.90,1018.08,2033.03,3454.02,3089.45,3543.01,600.52,597.71,29.13,0000 0000 0000 0000 000000
2017-06-06 03:41:19,-0.00,0.07,0.00,22.86,26.95,29.76,13.95,45.73,1018.08,2033.05,3454.02,3089.51,3543.01,599.80,596.91,29.18,0000 0000 0000 0000 000000
2017-06-06 03:46:20,0.01,0.07,0.00,22.89,26.96,29.79,13.98,45.87,1018.08,2033.04,3454.00,3089.20,3543.01,600.10,597.14,29.23,0000 0000 0000 0000 000000
2017-06-06 03:51:21,-0.00,0.07,0.00,22.92,26.97,29.80,13.91,45.91,1018.04,2033.04,3454.00,3089.11,3543.00,600.11,597.16,29.28,0000 0000 0000 0000 000000
2017-06-06 03:56:23,0.00,0.07,0.00,22.95,26.99,29.78,13.98,45.86,1017.95,2033.00,3454.00,3089.04,3542.99,599.91,596.89,29.33,0000 0000 0000 0000 000000
2017-06-06 04:01:24,0.00,0.07,0.00,22.97,27.00,29.78,13.94,45.96,1017.76,2033.00,3453.99,3089.00,3542.96,599.89,596.68,29.38,0000 0000 0000 0000 000000
2017-06-06 04:06:26,0.01,0.07,0.00,23.00,27.02,29.83,13.95,45.89,1017.76,2033.00,3453.93,3089.00,3542.64,600.10,596.83,29.43,0000 0000 0000 0000 000000
2017-06-06 04:11:27,0.01,0.07,0.00,23.03,27.04,29.87,14.02,45.96,1017.64,2033.00,3453.59,3088.99,3542.19,600.47,597.03,29.48,0000 0000 0000 0000 000000
2017-06-06 04:16:28,0.01,0.07,0.00,23.07,27.06,29.83,13.92,45.83,1017.62,2032.99,3453.10,3088.94,3542.01,599.81,596.26,29.53,0000 0000 0000 0000 000000
2017-06-06 04:21:29,0.00,0.07,0.00,23.10,27.07,29.88,13.97,45.88,1017.60,2032.98,3453.02,3088.76,3542.00,600.20,596.62,29.58,0000 0000 0000 0000 000000
2017-06-06 04:26:31,0.01,0.07,0.00,23.13,27.10,29.89,13.95,45.96,1017.59,2032.98,3453.00,3088.27,3541.99,600.56,596.83,29.63,0000 0000 0000 0000 000000
2017-06-06 04:31:32,-0.00,0.07,0.00,23.15,27.11,29.88,13.91,45.89,1017.59,2032.95,3452.98,3088.01,3541.92,599.79,596.05,29.68,0000 0000 0000 0000 000000
2017-06-06 04:36:33,0.01,0.07,0.00,23.18,27.13,29.93,13.89,45.85,1017.59,2032.87,3452.63,3088.00,3541.44,599.99,596.24,29.73,0000 0000 0000 0000 000000
2017-06-06 04:41:35,-0.02,0.07,0.00,23.20,27.15,29.95,13.91,45.83,1017.60,2032.68,3452.25,3088.00,3541.12,599.89,596.26,29.78,0000 0000 0000 0000 000000
2017-06-06 04:46:36,-0.03,0.07,0.00,23.23,27.17,29.96,13.94,45.88,1017.59,2032.30,3452.04,3087.97,3541.02,600.29,596.32,29.83,0000 0000 0000 0000 000000
2017-06-06 04:51:37,-0.00,0.07,0.00,23.25,27.20,29.99,13.88,45.83,1017.59,2032.07,3452.00,3087.76,3541.00,600.11,596.21,29.88,0000 0000 0000 0000 000000
2017-06-06 04:56:38,0.01,0.07,0.00,23.28,27.22,30.00,13.95,45.88,1017.59,2032.02,3451.98,3087.21,3540.97,600.04,596.11,29.93,0000 0000 0000 0000 000000
2017-06-06 05:01:39,0.01,0.07,0.00,23.31,27.24,30.00,13.91,45.80,1017.59,2032.01,3451.94,3087.02,3540.71,599.99,596.07,29.98,0000 0000 0000 0000 000000
2017-06-06 05:06:41,0.01,0.07,0.00,23.33,27.26,30.05,13.88,45.92,1017.59,2032.00,3451.38,3087.00,3540.13,600.04,595.92,30.03,0000 0000 0000 0000 000000
2017-06-06 05:11:42,0.00,0.07,0.00,23.36,27.29,30.06,13.85,45.97,1017.59,2032.00,3451.06,3087.00,3540.01,599.84,595.73,30.08,0000 0000 0000 0000 000000
2017-06-06 05:16:43,0.00,0.07,0.00,23.39,27.31,30.09,13.98,45.85,1017.60,2032.00,3451.01,3086.96,3540.00,600.37,596.08,30.13,0000 0000 0000 0000 000000
2017-06-06 05:21:44,0.00,0.07,0.00,23.42,27.33,30.12,13.98,46.04,1017.59,2031.99,3451.00,3086.76,3539.97,600.44,596.27,30.18,0000 0000 0000 0000 000000
2017-06-06 05:26:45,0.02,0.07,0.00,23.44,27.35,30.13,13.87,45.83,1017.59,2031.97,3450.97,3086.13,3539.66,599.92,595.65,30.23,0000 0000 0000 0000 000000
2017-06-06 05:31:47,-0.00,0.07,0.00,23.46,27.37,30.14,13.83,45.70,1017.59,2031.82,3450.71,3086.00,3539.09,599.79,595.60,30.28,0000 0000 0000 0000 000000
2017-06-06 05:36:48,-0.01,0.07,0.00,23.47,27.40,30.16,13.85,45.86,1017.60,2031.68,3450.21,3086.00,3539.00,599.57,595.20,30.33,0000 0000 0000 0000 000000
2017-06-06 05:41:49,-0.03,0.07,0.00,23.48,27.42,30.21,13.92,45.75,1017.59,2031.30,3450.04,3086.00,3539.00,600.04,595.79,30.38,0000 0000 0000 0000 000000
2017-06-06 05:46:50,-0.01,0.07,0.00,23.50,27.44,30.24,13.91,45.78,1017.59,2031.15,3450.01,3085.97,3538.98,600.06,595.58,30.43,0000 0000 0000 0000 000000
2017-06-06 05:51:52,0.00,0.07,0.00,23.51,27.46,30.24,13.86,45.87,1017.59,2031.02,3450.00,3085.70,3538.78,599.72,595.34,30.48,0000 0000 0000 0000 000000
2017-06-06 05:56:53,0.02,0.07,0.00,23.54,27.48,30.27,13.95,45.84,1017.57,2031.00,3449.98,3085.30,3538.41,600.28,595.79,30.53,0000 0000 0000 0000 000000
2017-06-06 06:01:55,0.00,0.07,0.00,23.55,27.50,30.29,13.90,45.78,1017.51,2031.00,3449.93,3085.06,3538.06,599.70,595.09,30.58,0000 0000 0000 0000 000000
2017-06-06 06:06:56,0.01,0.07,0.00,23.57,27.52,30.33,13.91,45.82,1017.58,2031.00,3449.63,3085.01,3538.01,600.13,595.42,30.63,0000 0000 0000 0000 000000
2017-06-06 06:11:58,0.00,0.07,0.00,23.58,27.55,30.33,13.85,45.67,1017.59,2030.99,3449.19,3085.00,3538.00,599.52,594.99,30.68,0000 0000 0000 0000 000000
2017-06-06 06:16:59,-0.00,0.07,0.00,23.59,27.57,30.36,13.86,45.73,1017.59,2030.98,3449.02,3085.00,3537.98,600.16,595.56,30.73,0000 0000 0000 0000 000000
2017-06-06 06:22:00,0.00,0.07,0.00,23.60,27.59,30.37,13.96,45.78,1017.59,2030.97,3448.99,3084.95,3537.79,600.02,595.35,30.78,0000 0000 0000 0000 000000
2017-06-06 06:27:01,0.01,0.07,0.00,23.61,27.61,30.40,13.97,45.71,1017.57,2030.92,3448.94,3084.58,3537.23,600.11,595.31,30.83,0000 0000 0000 0000 000000
2017-06-06 06:32:02,0.00,0.07,0.00,23.62,27.62,30.41,13.95,45.66,1017.53,2030.86,3448.77,3084.18,3537.02,600.22,595.54,30.88,0000 0000 0000 0000 000000
2017-06-06 06:37:04,-0.02,0.07,0.00,23.63,27.65,30.44,13.90,45.64,1017.47,2030.47,3448.15,3084.04,3537.00,600.16,595.47,30.93,0000 0000 0000 0000 000000
2017-06-06 06:42:05,-0.02,0.07,0.00,23.64,27.66,30.46,13.98,45.69,1017.42,2030.21,3448.01,3084.00,3537.00,600.16,595.21,30.98,0000 0000 0000 0000 000000
2017-06-06 06:47:06,-0.01,0.07,0.00,23.66,27.68,30.50,14.02,45.73,1017.17,2030.11,3448.00,3084.00,3536.97,600.18,595.11,31.03,0000 0000 0000 0000 000000
2017-06-06 06:52:07,-0.00,0.07,0.00,23.68,27.70,30.52,13.97,45.78,1017.12,2030.02,3448.00,3083.99,3536.93,600.26,595.29,31.08,0000 0000 0000 0000 000000
2017-06-06 06:57:09,0.01,0.07,0.00,23.69,27.72,30.50,13.86,45.56,1017.11,2030.02,3447.98,3083.96,3536.38,599.73,594.61,31.13,0000 0000 0000 0000 000000
2017-06-06 07:02:10,0.01,0.07,0.00,23.72,27.74,30.53,13.92,45.72,1017.11,2030.00,3447.97,3083.83,3536.06,600.05,594.93,31.18,0000 0000 0000 0000 000000
2017-06-06 07:07:11,0.01,0.07,0.00,23.72,27.76,30.55,13.94,45.73,1017.11,2030.00,3447.81,3083.31,3536.01,600.24,595.05,31.23,0000 0000 0000 0000 000000
2017-06-06 07:12:13,0.01,0.07,0.00,23.74,27.77,30.58,13.83,45.61,1017.11,2030.00,3447.43,3083.11,3536.00,599.70,594.48,31.28,0000 0000 0000 0000 000000
2017-06-06 07:17:14,0.00,0.07,0.00,23.75,27.80,30.58,13.94,45.72,1017.10,2029.99,3447.05,3083.01,3535.98,600.56,595.30,31.34,0000 0000 0000 0000 000000
2017-06-06 07:22:15,0.00,0.07,0.00,23.77,27.81,30.61,13.88,45.64,1017.09,2029.97,3447.00,3083.00,3535.75,599.85,594.59,31.39,0000 0000 0000 0000 000000
2017-06-06 07:27:16,0.00,0.07,0.00,23.79,27.83,30.62,13.90,45.73,1017.09,2029.89,3446.97,3082.98,3535.13,599.77,594.48,31.44,0000 0000 0000 0000 000000
2017-06-06 07:32:18,-0.01,0.07,0.00,23.80,27.85,30.66,13.86,45.66,1017.10,2029.67,3446.90,3082.92,3535.02,599.79,594.51,31.49,0000 0000 0000 0000 000000
2017-06-06 07:37:19,-0.02,0.07,0.00,23.82,27.86,30.70,13.87,45.70,1017.10,2029.38,3446.57,3082.50,3535.00,599.84,594.35,31.54,0000 0000 0000 0000 000000
2017-06-06 07:42:20,0.00,0.07,0.00,23.83,27.88,30.70,13.89,45.58,1017.10,2029.15,3446.11,3082.10,3534.99,600.22,594.84,31.59,0000 0000 0000 0000 000000
2017-06-06 07:47:22,0.00,0.07,0.00,23.83,27.90,30.71,13.84,45.48,1017.10,2029.11,3446.02,3082.04,3534.97,599.67,594.37,31.64,0000 0000 0000 0000 000000
2017-06-06 07:52:23,0.00,0.07,0.00,23.85,27.91,30.68,13.93,45.79,1017.09,2029.03,3446.00,3082.00,3534.60,600.34,594.95,31.69,0000 0000 0000 0000 000000
2017-06-06 07:57:24,0.00,0.07,0.00,23.85,27.92,30.71,13.90,45.73,1017.05,2029.02,3446.00,3082.00,3534.24,600.41,594.97,31.74,0000 0000 0000 0000 000000
2017-06-06 08:02:25,0.00,0.07,0.00,23.87,27.95,30.74,13.91,45.60,1017.02,2029.00,3445.98,3082.00,3534.08,599.97,594.52,31.79,0000 0000 0000 0000 000000
2017-06-06 08:07:27,0.00,0.07,0.00,23.88,27.96,30.77,13.88,45.77,1016.92,2029.00,3445.83,3081.95,3534.01,600.07,594.52,31.84,0000 0000 0000 0000 000000
2017-06-06 08:12:28,0.01,0.07,0.00,23.90,27.97,30.78,13.91,45.87,1016.82,2029.00,3445.51,3081.77,3533.94,599.98,594.42,31.89,0000 0000 0000 0000 000000
2017-06-06 08:17:29,0.04,0.07,0.00,23.91,28.00,30.80,13.86,45.78,1016.76,2029.00,3444.27,3081.04,3533.18,599.88,594.10,31.94,0000 0000 0000 0000 000000
2017-06-06 08:22:30,0.00,0.08,0.00,23.92,28.00,30.80,13.94,45.74,1016.84,2029.00,3444.12,3081.00,3533.06,600.42,594.69,31.99,0000 0000 0000 0000 000000
2017-06-06 08:27:32,0.00,0.08,0.00,23.93,28.02,30.81,13.92,45.75,1016.88,2029.00,3444.02,3081.00,3533.01,600.04,594.36,32.04,0000 0000 0000 0000 000000
2017-06-06 08:32:33,0.00,0.08,0.00,23.95,28.03,30.83,13.96,45.83,1016.72,2028.98,3443.98,3080.89,3533.00,600.16,594.27,32.09,0000 0000 0000 0000 000000
2017-06-06 08:37:34,0.02,0.08,0.00,23.98,28.05,30.84,13.89,45.69,1016.70,2028.96,3443.58,3080.25,3532.80,599.91,594.00,32.14,0000 0000 0000 0000 000000
2017-06-06 08:42:35,0.00,0.08,0.00,24.00,28.06,30.89,13.92,45.64,1016.72,2028.92,3443.14,3080.02,3532.37,600.18,594.21,32.19,0000 0000 0000 0000 000000
2017-06-06 08:47:37,-0.01,0.08,0.00,24.00,28.07,30.88,13.87,45.61,1016.84,2028.82,3443.09,3080.02,3532.17,600.28,594.42,32.24,0000 0000 0000 0000 000000
2017-06-06 08:52:38,-0.01,0.08,0.00,24.00,28.10,30.90,13.79,45.56,1016.67,2028.60,3443.01,3080.00,3532.01,599.64,593.72,32.29,0000 0000 0000 0000 000000
2017-06-06 08:57:39,-0.03,0.07,0.00,23.99,28.10,30.93,13.87,45.84,1016.64,2028.26,3442.99,3080.00,3532.00,599.31,593.37,32.34,0000 0000 0000 0000 000000
2017-06-06 09:02:41,-0.01,0.07,0.00,23.99,28.12,30.94,13.90,45.73,1016.63,2028.23,3442.99,3079.97,3532.00,599.81,593.90,32.39,0000 0000 0000 0000 000000
2017-06-06 09:07:42,-0.01,0.07,0.00,23.98,28.12,30.98,13.85,45.73,1016.63,2028.04,3442.97,3079.95,3531.99,600.02,594.15,32.44,0000 0000 0000 0000 000000
2017-06-06 09:12:43,0.02,0.07,0.00,23.97,28.15,30.96,13.95,45.77,1016.66,2028.03,3442.74,3079.76,3531.90,599.90,594.04,32.49,0000 0000 0000 0000 000000
2017-06-06 09:17:44,0.02,0.07,0.00,23.97,28.15,30.96,13.88,45.67,1016.64,2028.02,3442.35,3079.37,3531.53,600.10,594.31,32.54,0000 0000 0000 0000 000000
2017-06-06 09:22:46,0.01,0.08,0.00,23.97,28.17,30.99,13.93,45.63,1016.66,2028.00,3442.08,3079.10,3531.14,599.93,594.01,32.59,0000 0000 0000 0000 000000
2017-06-06 09:27:47,0.00,0.08,0.00,23.95,28.17,31.00,13.84,45.62,1016.65,2028.00,3442.02,3079.03,3531.03,599.57,593.73,32.64,0000 0000 0000 0000 000000
2017-06-06 09:32:48,0.00,0.08,0.00,23.97,28.17,31.04,13.91,45.77,1016.65,2028.00,3442.00,3079.01,3531.01,600.06,594.20,32.69,0000 0000 0000 0000 000000
2017-06-06 09:37:49,0.00,0.08,0.00,23.95,28.19,31.00,13.92,45.49,1016.63,2028.00,3442.00,3079.00,3531.00,600.27,594.37,32.74,0000 0000 0000 0000 000000
2017-06-06 09:42:51,0.00,0.08,0.00,23.95,28.20,31.00,13.94,45.70,1016.63,2028.00,3441.99,3079.00,3531.00,599.98,594.14,32.79,0000 0000 0000 0000 000000
2017-06-06 09:47:52,0.00,0.08,0.00,23.95,28.20,31.03,13.87,45.72,1016.65,2028.00,3441.98,3079.00,3531.00,599.90,593.97,32.85,0000 0000 0000 0000 000000
2017-06-06 09:52:54,0.00,0.08,0.00,23.94,28.21,31.03,13.89,45.77,1016.64,2028.00,3441.89,3078.99,3530.92,599.82,594.00,32.90,0000 0000 0000 0000 000000
2017-06-06 09:57:55,0.01,0.08,0.00,23.94,28.22,31.05,13.96,45.75,1016.63,2027.98,3441.53,3078.95,3530.70,599.76,593.90,32.95,0000 0000 0000 0000 000000
2017-06-06 10:02:56,0.00,0.08,0.00,23.95,28.22,31.05,13.96,45.68,1016.62,2027.98,3441.51,3078.93,3530.60,600.12,594.24,33.00,0000 0000 0000 0000 000000
2017-06-06 10:07:57,0.01,0.08,0.00,23.94,28.22,31.08,13.89,45.63,1016.63,2027.98,3441.21,3078.88,3530.32,600.09,594.27,33.05,0000 0000 0000 0000 000000
2017-06-06 10:12:59,0.01,0.08,0.00,23.93,28.23,31.09,13.93,45.68,1016.64,2027.98,3441.06,3078.70,3530.10,600.48,594.72,33.10,0000 0000 0000 0000 000000
2017-06-06 10:18:00,0.00,0.08,0.00,23.92,28.25,31.08,13.86,45.60,1016.63,2027.95,3441.00,3078.25,3530.03,600.18,594.39,33.15,0000 0000 0000 0000 000000
2017-06-06 10:23:01,0.00,0.08,0.00,23.91,28.25,31.09,13.89,45.65,1016.63,2027.95,3441.00,3078.25,3530.04,599.89,594.07,33.20,0000 0000 0000 0000 000000
2017-06-06 10:28:02,0.00,0.08,0.00,23.91,28.25,31.10,13.97,45.73,1016.62,2027.94,3441.00,3078.22,3530.02,600.34,594.63,33.25,0000 0000 0000 0000 000000
2017-06-06 10:33:04,0.00,0.08,0.00,23.90,28.25,31.10,13.87,45.77,1016.62,2027.93,3441.00,3078.07,3530.00,599.97,594.21,33.30,0000 0000 0000 0000 000000
2017-06-06 10:38:05,0.00,0.08,0.00,23.90,28.25,31.12,13.83,45.73,1016.62,2027.94,3441.00,3078.09,3530.00,599.77,594.17,33.35,0000 0000 0000 0000 000000
2017-06-06 10:43:07,0.00,0.08,0.00,23.89,28.25,31.10,13.98,45.98,1016.62,2027.92,3440.99,3078.06,3530.00,600.60,594.80,33.40,0000 0000 0000 0000 000000
2017-06-06 10:48:08,-0.01,0.08,0.00,23.89,28.26,31.11,13.89,45.75,1016.62,2027.88,3440.98,3078.01,3530.00,599.99,594.29,33.45,0000 0000 0000 0000 000000
2017-06-06 10:53:09,0.00,0.08,0.00,23.87,28.26,31.09,13.93,45.76,1016.62,2027.86,3440.98,3078.00,3529.99,599.99,594.33,33.50,0000 0000 0000 0000 000000
2017-06-06 10:58:11,0.00,0.08,0.00,23.85,28.26,31.12,13.99,45.96,1016.62,2027.88,3440.98,3078.00,3529.99,599.86,594.22,33.55,0000 0000 0000 0000 000000
2017-06-06 11:03:12,-0.00,0.08,0.00,23.84,28.27,31.13,13.90,45.73,1016.62,2027.82,3440.92,3078.01,3529.97,599.73,594.08,33.60,0000 0000 0000 0000 000000
2017-06-06 11:08:13,0.01,0.08,0.00,23.83,28.26,31.10,13.93,45.82,1016.62,2027.94,3440.93,3078.02,3529.99,599.99,594.44,33.65,0000 0000 0000 0000 000000
2017-06-06 11:13:15,0.00,0.08,0.00,23.82,28.25,31.11,13.94,45.82,1016.59,2027.95,3440.64,3078.01,3529.97,600.21,594.59,33.70,0000 0000 0000 0000 000000
2017-06-06 11:18:16,0.00,0.08,0.00,23.79,28.25,31.13,13.84,45.73,1016.59,2027.94,3440.40,3078.00,3529.97,599.73,594.33,33.76,0000 0000 0000 0000 000000
2017-06-06 11:23:17,0.01,0.08,0.00,23.78,28.25,31.12,13.96,45.76,1016.48,2027.91,3440.20,3078.00,3529.92,599.86,594.19,33.81,0000 0000 0000 0000 000000
2017-06-06 11:28:19,0.00,0.08,0.00,23.77,28.25,31.16,13.91,45.91,1016.21,2027.91,3440.11,3078.00,3529.91,600.14,594.39,33.86,0000 0000 0000 0000 000000
2017-06-06 11:33:20,0.00,0.08,0.00,23.76,28.25,31.17,13.93,45.87,1016.16,2027.94,3440.06,3078.00,3529.86,599.84,594.15,33.91,0000 0000 0000 0000 000000
2017-06-06 11:38:21,0.00,0.08,0.00,23.73,28.25,31.14,13.84,45.83,1016.21,2027.95,3440.02,3078.00,3529.83,599.48,594.03,33.96,0000 0000 0000 0000 000000
2017-06-06 11:43:23,0.01,0.08,0.00,23.72,28.24,31.14,13.90,45.73,1016.18,2027.97,3440.00,3078.00,3529.63,599.87,594.20,34.01,0000 0000 0000 0000 000000
2017-06-06 11:48:24,-0.00,0.08,0.00,23.71,28.22,31.16,13.94,45.83,1016.14,2027.96,3440.02,3078.00,3529.64,600.07,594.32,34.06,0000 0000 0000 0000 000000
2017-06-06 11:53:25,0.00,0.08,0.00,23.70,28.22,31.18,13.96,45.83,1016.14,2027.97,3440.01,3078.00,3529.66,600.15,594.56,34.11,0000 0000 0000 0000 000000
2017-06-06 11:58:27,-0.00,0.08,0.00,23.67,28.22,31.18,13.96,45.84,1016.16,2027.97,3440.00,3077.99,3529.57,600.50,594.80,34.16,0000 0000 0000 0000 000000
2017-06-06 12:03:28,-0.00,0.08,0.00,23.66,28.21,31.16,13.93,45.82,1016.15,2027.98,3440.00,3077.99,3529.63,599.92,594.31,34.21,0000 0000 0000 0000 000000
2017-06-06 12:08:29,0.00,0.08,0.00,23.65,28.20,31.18,13.91,45.77,1016.15,2027.98,3440.01,3077.99,3529.79,599.75,594.27,34.26,0000 0000 0000 0000 000000
2017-06-06 12:13:30,0.00,0.08,0.00,23.64,28.20,31.14,14.01,45.79,1016.15,2027.99,3440.00,3077.99,3529.89,600.31,594.66,34.31,0000 0000 0000 0000 000000
2017-06-06 12:18:31,0.00,0.08,0.00,23.62,28.19,31.15,13.98,45.82,1016.13,2027.99,3440.01,3077.99,3529.95,599.93,594.55,34.36,0000 0000 0000 0000 000000
2017-06-06 12:23:32,0.00,0.08,0.00,23.60,28.17,31.13,13.90,45.81,1016.13,2027.99,3440.01,3078.01,3529.97,600.01,594.55,34.41,0000 0000 0000 0000 000000
2017-06-06 12:28:33,0.00,0.08,0.00,23.58,28.17,31.10,13.93,45.69,1016.13,2027.99,3440.00,3078.00,3529.93,599.96,594.63,34.46,0000 0000 0000 0000 000000
2017-06-06 12:33:34,0.00,0.08,0.00,23.55,28.16,31.09,13.88,45.86,1016.13,2027.99,3440.00,3078.00,3529.93,600.05,594.65,34.51,0000 0000 0000 0000 000000
2017-06-06 12:38:36,0.00,0.08,0.00,23.52,28.15,31.09,13.88,45.69,1016.09,2027.99,3440.00,3078.00,3529.93,599.60,594.37,34.56,0000 0000 0000 0000 000000
2017-06-06 12:43:37,0.00,0.08,0.00,23.51,28.15,31.07,14.05,45.91,1016.10,2027.99,3440.00,3078.01,3529.97,600.41,595.11,34.61,0000 0000 0000 0000 000000
2017-06-06 12:48:38,0.00,0.08,0.00,23.48,28.12,31.05,13.93,45.83,1016.12,2028.00,3440.00,3078.03,3529.98,600.05,594.75,34.66,0000 0000 0000 0000 000000
2017-06-06 12:53:40,-0.00,0.08,0.00,23.47,28.12,31.05,13.96,45.83,1016.10,2028.00,3440.01,3078.05,3529.99,600.14,594.89,34.71,0000 0000 0000 0000 000000